Location: Paris
(48.6709°N, 2.3750°E)
Time: 12:12:40
(UTC+02:00)

CAS-4B - Pass Details

Date: 03 July 2022
Orbit: 522 x 536 km, 43.0° (Epoch: 17 August)

Event Time Altitude Azimuth Distance (km) Brightness Sun altitude
Exits shadow 02:45:13 11° 124° (SE) 1,679 ? -17.5°
Drops below altitude 10° 02:45:38 10° 119° (ESE) 1,758 ? -17.5°
Sets 02:48:46 0° 93° (E) 2,653 ? -17.3°
